London, United Kingdom

7:49 AM BST on 六月 24, 2017 (GMT +0100)
Heathrow

天気 に付いての歴史 EGLL - 五月, 2017

Change the Weather History Date:

土曜日, 五月 20, 2017

  Actual Average Record
Temperature  
平均温度 53 °F -  
最高温度 62 °F 65 °F 75 °F (1998)
最低温度 44 °F 50 °F 39 °F (2008)
Degree Days  
暖房度日 12    
Growing Degree Days 3 (Base 50)    
Moisture  
露点温度 46 °F    
Average Humidity 75    
Maximum Humidity 93    
Minimum Humidity 45    
降水確率  
降水確率 0.02 インチ - - ()
海面圧  
海面圧 30.05 インチ    
 
風速 8 Mph ()    
最大風速 20 Mph    
Max Gust Speed 26 Mph    
視程 7.3 マイル    
イベント    
Averages and records for this station are not official NWS values.
T = Trace of Precipitation, MM = Missing Value Source: Averaged Metar Reports

Daily Weather History Graph

Daily Weather History Graph

Search for Another Location

Airport or City:

Trip Planner

Search our weather history database for the weather conditions in past years. The results will help you decide how hot, cold, wet, or windy it might be!

Date:

天文

May. 20, 2017 入り
実時間 5:03 AM BST 8:54 PM BST
常用薄明 4:20 AM BST 9:37 PM BST
航海薄明 3:21 AM BST 10:37 PM BST
天文薄明 1:38 AM BST 12:26 AM BST
2:47 AM BST (5/20) 1:53 PM BST (5/20)
可視光の長さ 17h 17m
可照時間
15h 51m
二十六夜, 35% of the Moon is Illuminated
5月 20
二十六夜
5月 25
新しい
6月 1
上弦
6月 9
満月
6月 17
第 4 四半期

Hourly Weather History & Observations

時間 (BST) 温度 体感気温(寒さ) 露点温度 湿度 気圧 視程 Wind Dir 風速 突風の速度 Precip イベント 現在の気象状況
12:20 AM 48.2 °F - 46.4 °F 93% 29.95 インチ 6.2 マイル 3.5 Mph - N/A   情報なし
12:50 AM 48.2 °F - 46.4 °F 93% 29.95 インチ 6.2 マイル 南西 4.6 Mph - N/A   情報なし
1:00 AM 48 °F - 46 °F 89% 29.96 インチ 31 マイル 南南西 5.8 Mph - -   だいたい曇
1:20 AM 48.2 °F - 46.4 °F 93% 29.95 インチ 6.2 マイル 南南西 6.9 Mph - N/A   情報なし
1:50 AM 48.2 °F - 46.4 °F 93% 29.95 インチ 6.2 マイル 南南西 5.8 Mph - N/A   情報なし
2:20 AM 46.4 °F 43.5 °F 44.6 °F 93% 29.95 インチ 6.2 マイル 南西 5.8 Mph - N/A   情報なし
2:50 AM 46.4 °F 42.9 °F 44.6 °F 93% 29.95 インチ 6.2 マイル 南南西 6.9 Mph - N/A   情報なし
3:20 AM 46.4 °F 42.9 °F 44.6 °F 93% 29.95 インチ 6.2 マイル 南南西 6.9 Mph - N/A   情報なし
3:50 AM 46.4 °F 43.5 °F 44.6 °F 93% 29.95 インチ 6.2 マイル 南西 5.8 Mph - N/A   情報なし
4:00 AM 46 °F - 43 °F 87% 29.97 インチ 19 マイル 南西 6.9 Mph - -   だいたい曇
4:20 AM 46.4 °F 43.5 °F 44.6 °F 93% 29.95 インチ 6.2 マイル 南西 5.8 Mph - N/A   所により曇
4:50 AM 44.6 °F 42.2 °F 42.8 °F 93% 29.98 インチ 6.2 マイル 南南西 4.6 Mph - N/A   情報なし
5:00 AM 45 °F - 43 °F 89% 29.97 インチ 25 マイル 南南西 4.6 Mph - -   やや曇
5:20 AM 44.6 °F 43.1 °F 42.8 °F 93% 29.98 インチ 6.2 マイル 南南西 3.5 Mph - N/A   情報なし
5:50 AM 44.6 °F 43.1 °F 42.8 °F 93% 29.98 インチ 6.2 マイル 南南西 3.5 Mph - N/A   情報なし
6:00 AM 44 °F - 42 °F 91% 29.99 インチ 18 マイル 西南西 3.5 Mph - -  
6:20 AM 46.4 °F 43.5 °F 44.6 °F 93% 29.98 インチ 6.2 マイル 南南西 5.8 Mph 17.3 Mph N/A   情報なし
6:50 AM 46.4 °F 43.5 °F 44.6 °F 93% 30.01 インチ 6.2 マイル 南南西 5.8 Mph - N/A   情報なし
7:00 AM 47 °F - 45 °F 88% 30.01 インチ 25 マイル 南南西 5.8 Mph - -  
7:20 AM 48.2 °F - 46.4 °F 93% 30.01 インチ 6.2 マイル 南西 6.9 Mph - N/A   情報なし
7:50 AM 50.0 °F - 46.4 °F 87% 30.01 インチ 6.2 マイル 南西 6.9 Mph - N/A   情報なし
8:00 AM 51 °F - 47 °F 80% 30.02 インチ 17 マイル 南南西 6.9 Mph - -   所により曇
8:20 AM 51.8 °F - 48.2 °F 88% 30.01 インチ 6.2 マイル 南南西 6.9 Mph - N/A   情報なし
8:50 AM 53.6 °F - 48.2 °F 82% 30.04 インチ 6.2 マイル 南南西 5.8 Mph - N/A   所により曇
9:00 AM 54 °F - 47 °F 71% 30.03 インチ 25 マイル 南南西 5.8 Mph - -   やや曇
9:20 AM 55.4 °F - 46.4 °F 72% 30.04 インチ 6.2 マイル 南西 9.2 Mph - N/A   所により曇
9:50 AM 57.2 °F - 44.6 °F 63% 30.04 インチ 6.2 マイル 南西 11.5 Mph - N/A   だいたい曇
10:00 AM 56 °F - 43 °F 51% 30.04 インチ 28 マイル 南西 12.7 Mph - -   やや曇
10:20 AM 59.0 °F - 44.6 °F 59% 30.04 インチ 6.2 マイル 南南西 12.7 Mph 26.5 Mph N/A   やや曇
10:50 AM 57.2 °F - 44.6 °F 63% 30.04 インチ 6.2 マイル 南西 15.0 Mph - N/A   所により曇
11:00 AM 57 °F - 44 °F 50% 30.05 インチ 19 マイル 南西 12.7 Mph - -   やや曇
11:20 AM 57.2 °F - 44.6 °F 63% 30.04 インチ 6.2 マイル 南南西 13.8 Mph - N/A   だいたい曇
11:50 AM 57.2 °F - 50.0 °F 77% 30.06 インチ 6.2 マイル 南南西 11.5 Mph - N/A   やや曇
12:00 PM 58 °F - 45 °F 52% 30.06 インチ 25 マイル 11.5 Mph - -
12:20 PM 57.2 °F - 48.2 °F 72% 30.06 インチ 6.2 マイル 南西 13.8 Mph - N/A 小雨
12:50 PM 53.6 °F - 48.2 °F 82% 30.06 インチ 6.2 マイル 変数 9.2 Mph - N/A   やや曇
1:00 PM 56 °F - 49 °F 69% 30.06 インチ 31 マイル 8.1 Mph - -
1:20 PM 59.0 °F - 48.2 °F 67% 30.06 インチ 6.2 マイル 南南西 15.0 Mph - N/A   やや曇
1:50 PM 57.2 °F - 50.0 °F 77% 30.06 インチ 6.2 マイル 西南西 12.7 Mph - N/A にわか雨(弱)
2:20 PM 57.2 °F - 50.0 °F 77% 30.06 インチ 6.2 マイル 西南西 15.0 Mph - N/A にわか雨(弱)
2:50 PM 59.0 °F - 48.2 °F 67% 30.06 インチ 6.2 マイル 南西 17.3 Mph - N/A   だいたい曇
3:00 PM 59 °F - 46 °F 51% 30.08 インチ 31 マイル 南西 18.4 Mph - -
3:20 PM 59.0 °F - 48.2 °F 67% 30.06 インチ 6.2 マイル 南南西 16.1 Mph - N/A   だいたい曇
3:50 PM 59.0 °F - 48.2 °F 67% 30.09 インチ 6.2 マイル 南南西 15.0 Mph - N/A   所により曇
4:00 PM 59 °F - 47 °F 53% 30.09 インチ 28 マイル 南南西 16.1 Mph - -   やや曇
4:20 PM 59.0 °F - 48.2 °F 67% 30.09 インチ 6.2 マイル 南南西 16.1 Mph - N/A   だいたい曇
4:50 PM 59.0 °F - 48.2 °F 67% 30.09 インチ 6.2 マイル 南南西 15.0 Mph - N/A   だいたい曇
5:00 PM 61 °F - 48 °F 52% 30.09 インチ 25 マイル 南南西 17.3 Mph - -   やや曇
5:20 PM 60.8 °F - 48.2 °F 63% 30.09 インチ 6.2 マイル 南南西 16.1 Mph - N/A   だいたい曇
5:50 PM 60.8 °F - 46.4 °F 59% 30.09 インチ 6.2 マイル 南南西 17.3 Mph - N/A   やや曇
6:20 PM 60.8 °F - 46.4 °F 59% 30.09 インチ 6.2 マイル 南西 19.6 Mph - N/A   やや曇
6:50 PM 60.8 °F - 44.6 °F 55% 30.09 インチ 6.2 マイル 南西 17.3 Mph - N/A   やや曇
7:00 PM 60 °F - 44 °F 45% 30.12 インチ 16 マイル 南西 19.6 Mph - -   やや曇
7:20 PM 59.0 °F - 44.6 °F 59% 30.12 インチ 6.2 マイル 南西 16.1 Mph - N/A   所により曇
7:50 PM 59.0 °F - 44.6 °F 59% 30.12 インチ 6.2 マイル 南西 15.0 Mph - N/A   所により曇
8:20 PM 57.2 °F - 44.6 °F 63% 30.15 インチ 6.2 マイル 南西 12.7 Mph - N/A   所により曇
8:50 PM 55.4 °F - 46.4 °F 72% 30.15 インチ 6.2 マイル 南南西 15.0 Mph - N/A   所により曇
9:00 PM 56 °F - 45 °F 57% 30.16 インチ 28 マイル 南南西 13.8 Mph - -   だいたい曇
9:20 PM 55.4 °F - 46.4 °F 72% 30.15 インチ 6.2 マイル 南西 12.7 Mph - N/A   所により曇
9:50 PM 53.6 °F - 46.4 °F 77% 30.18 インチ 6.2 マイル 南南西 10.4 Mph - N/A   情報なし
10:00 PM 54 °F - 46 °F 66% 30.19 インチ 28 マイル 南南西 9.2 Mph - -   だいたい曇
10:20 PM 53.6 °F - 46.4 °F 77% 30.18 インチ 6.2 マイル 南西 10.4 Mph - N/A   所により曇
10:50 PM 51.8 °F - 46.4 °F 82% 30.18 インチ 6.2 マイル 南西 10.4 Mph - N/A   だいたい曇
11:20 PM 51.8 °F - 48.2 °F 88% 30.21 インチ 6.2 マイル 南南西 9.2 Mph - N/A   情報なし
11:50 PM 51.8 °F - 48.2 °F 88% 30.21 インチ 6.2 マイル 南南西 9.2 Mph - N/A   情報なし